Retour au catalogue

RADUGA 24

ActifMilitaireGEO
NORAD 20367·PAYLOAD·🇷🇺 Russia

Lancé Dec 15, 1989 depuis Baikonur Cosmodrome

Loading…

TLE

FraisSource: Space-Track

Époque: Sep 13, 2026, 16:02 UTC

1 20367U 89098A   26256.66814756 -.00000312  00000-0  00000-0 0  9993
2 20367  12.4100 333.1662 0003558 291.6894  67.1929  1.00232637133850

Suivez RADUGA 24 en temps réel avec AllMySat

Download on the App Store